Location: Newark
(34.7000°S, 31.1997°W)
Time: 11:32:39
(UTC+00:00)

Envisat - Visible Passes

Search period start: 07 April 2020 00:00
Search period end: 17 April 2020 00:00
Orbit: 764 x 766 km, 98.1° (Epoch: 07 April)

Date Brightness Start Highest point End Pass type
(mag) Time Alt. Az. Time Alt. Az. Time Alt. Az.
07 Apr 6.0 06:28:46 10° E 06:31:12 14° ESE 06:33:39 10° SE visible
07 Apr 3.1 20:17:00 10° SSE 20:22:06 60° E 20:27:08 10° N visible
07 Apr 6.0 21:57:54 10° SSW 22:00:32 14° WSW 22:03:11 10° W visible
08 Apr 3.9 07:27:55 10° NNE 07:32:53 55° ESE 07:37:55 10° S visible
08 Apr 4.8 21:19:38 10° S 21:24:09 32° WSW 21:28:38 10° NW visible
09 Apr 5.4 06:52:20 10° ENE 06:56:22 24° ESE 07:00:25 10° SSE visible
09 Apr 3.2 20:42:24 10° S 20:47:33 75° WSW 20:52:38 10° NNW visible
10 Apr 6.3 06:19:15 10° ESE 06:20:02 10° ESE 06:20:51 10° SE visible
10 Apr 3.0 07:53:11 10° N 07:58:18 82° WNW 08:03:28 10° SSW visible
10 Apr 3.3 20:05:49 10° SSE 20:10:46 46° E 20:15:39 10° N visible
10 Apr 5.7 21:45:57 10° SSW 21:49:22 18° WSW 21:52:46 10° WNW visible
11 Apr 4.4 07:16:51 10° NE 07:21:38 42° ESE 07:26:28 10° S visible
11 Apr 4.4 21:08:06 10° S 21:12:55 41° WSW 21:17:39 10° NW visible
12 Apr 5.7 06:41:39 10° ENE 06:45:10 19° ESE 06:48:42 10° SSE visible
12 Apr 3.0 20:31:05 10° SSE 20:36:16 85° ENE 20:41:22 10° NNW visible
13 Apr 3.2 07:41:54 10° NNE 07:47:00 78° ESE 07:52:09 10° S visible
13 Apr 5.4 21:34:12 10° SSW 21:38:10 23° WSW 21:42:07 10° WNW visible
14 Apr 4.8 07:05:52 10° NE 07:10:23 33° ESE 07:14:58 10° S visible
14 Apr 3.9 20:56:40 10° S 21:01:39 52° WSW 21:06:35 10° NNW visible
15 Apr 5.9 06:31:11 10° E 06:33:59 15° ESE 06:36:48 10° SSE visible
15 Apr 3.0 20:19:49 10° SSE 20:24:57 66° E 20:30:00 10° N visible
15 Apr 6.0 22:01:04 10° SW 22:03:20 13° WSW 22:05:35 10° W visible
16 Apr 3.6 07:30:42 10° NNE 07:35:43 60° ESE 07:40:48 10° S visible
16 Apr 5.0 21:22:34 10° S 21:26:57 29° WSW 21:31:18 10° NW visible
